Stations météo

réclame
Mon MeteoGroup
Shoeburyness Landwick, Grande-Bretagne (3693): Température de l'air & dewpoint: 15.07.2019 01:00:00 - 21.07.2019 01:00:00 (BST)Shoeburyness Landwick, Grande-Bretagne (3693): Température de l'air -20cm & Température de l'air -100cm: 15.07.2019 01:00:00 - 21.07.2019 01:00:00 (BST)Shoeburyness Landwick, Grande-Bretagne (3693): Vitesse du vent & gusts: 15.07.2019 01:00:00 - 21.07.2019 01:00:00 (BST)Shoeburyness Landwick, Grande-Bretagne (3693): Direction du vent: 15.07.2019 01:00:00 - 21.07.2019 01:00:00 (BST)Shoeburyness Landwick, Grande-Bretagne (3693): reduced air pressure: 15.07.2019 01:00:00 - 21.07.2019 01:00:00 (BST)Shoeburyness Landwick, Grande-Bretagne (3693): visibility: 15.07.2019 01:00:00 - 21.07.2019 01:00:00 (BST)Shoeburyness Landwick, Grande-Bretagne (3693): Ensoleillement: 15.07.2019 01:00:00 - 21.07.2019 01:00:00 (BST)Shoeburyness Landwick, Grande-Bretagne (3693): Quantités de précipitations: 15.07.2019 01:00:00 - 21.07.2019 01:00:00 (BST)
Date & Time tt [°C] td [°C] tt -20cm [°C] tt -100cm [°C] ff [km/h] ff [knt] fx [km/h] fx [knt] dd ppp [hPa] vv [km] sd [min] rr [mm]
21.07.2019 01:00:00 16,1 12,4 - - 11 6 - - W 1015,7 50 - 0,0
21.07.2019 00:00:00 17,0 12,3 - - 9 5 - - W 1015,2 45 0 0,0
20.07.2019 23:00:00 17,6 12,5 - - 11 6 - - W 1014,4 13 0 0,0
20.07.2019 22:00:00 18,1 12,3 - - 11 6 - - W 1013,6 45 0 0,0
20.07.2019 21:00:00 20,1 14,5 - - 13 7 - - WSW 1012,5 40 42 0,0
20.07.2019 20:00:00 21,5 15,5 - - 18 10 - - WSW 1011,4 40 54 0,0
20.07.2019 19:00:00 21,5 15,5 - - 22 12 - - SW 1010,4 35 6 0,0
20.07.2019 18:00:00 21,9 15,5 - - 24 13 - - SW 1009,7 35 48 0,0
20.07.2019 17:00:00 23,5 13,8 - - 24 13 - - WSW 1009,0 40 48 0,0
20.07.2019 16:00:00 22,8 17,2 - - 22 12 - - WSW 1008,6 45 48 0,0
20.07.2019 15:00:00 20,7 18,3 - - 15 8 63 34 WSW 1008,5 27 24 6,6
20.07.2019 14:00:00 18,4 16,6 - - 16 9 - - W 1008,1 35 6 0,6
20.07.2019 13:00:00 23,2 16,6 - - 24 13 - - SW 1007,2 40 60 0,0
20.07.2019 12:00:00 21,4 17,8 - - 18 10 - - SW 1006,9 45 42 0,0
20.07.2019 11:00:00 19,2 17,8 - - 18 10 - - SW 1006,9 16 6 0,6
20.07.2019 10:00:00 18,4 17,3 19,0 17,7 26 14 - - SSW 1006,7 3,6 0 0,8
20.07.2019 09:00:00 18,7 16,8 - - 22 12 - - SSW 1006,6 35 6 0,0
20.07.2019 08:00:00 18,2 16,6 - - 15 8 - - SW 1006,5 30 0 0,0
20.07.2019 07:00:00 17,3 16,1 - - 16 9 - - SSW 1006,4 50 0 0,0
20.07.2019 06:00:00 17,3 15,8 - - 21 11 - - SSW 1006,5 50 0 0,0
20.07.2019 05:00:00 17,4 16,4 - - 16 9 - - SW 1006,7 50 0 0,2
20.07.2019 04:00:00 17,5 16,8 - - 21 11 - - S 1006,3 10 0 4,0
20.07.2019 03:00:00 17,9 17,1 - - 18 10 - - S 1008,0 9 0 0,4
20.07.2019 02:00:00 17,7 17,2 - - 11 6 - - SW 1008,2 12 0 3,8
20.07.2019 01:00:00 17,7 17,2 - - 13 7 - - SSW 1008,5 3,1 - 10,6
20.07.2019 00:00:00 18,5 16,8 - - 13 7 - - SW 1008,8 11 0 0,2
19.07.2019 23:00:00 18,6 16,6 - - 22 12 - - SSW 1009,1 40 0 0,0
19.07.2019 22:00:00 18,7 16,9 - - 22 12 - - SSW 1009,7 50 0 0,0
19.07.2019 21:00:00 18,7 16,9 - - 24 13 - - SSW 1010,0 35 0 0,0
19.07.2019 20:00:00 18,8 16,8 - - 21 11 - - SW 1010,0 25 0 0,0
19.07.2019 19:00:00 19,0 16,4 - - 22 12 - - SW 1010,3 27 0 0,0
19.07.2019 18:00:00 19,0 16,6 - - 26 14 - - SW 1010,5 30 0 0,0
19.07.2019 17:00:00 18,3 16,1 - - 29 16 - - SSW 1011,2 50 0 0,0
19.07.2019 16:00:00 17,9 16,0 - - 29 16 - - SSW 1011,5 40 0 0,2
19.07.2019 15:00:00 18,4 15,1 - - 28 15 46 25 SSW 1011,7 40 0 0,8
19.07.2019 14:00:00 18,4 14,9 - - 28 15 - - SSW 1011,9 19 0 0,2
19.07.2019 13:00:00 18,1 13,9 - - 24 13 - - SW 1012,2 6 0 0,0
19.07.2019 12:00:00 20,9 13,3 - - 26 14 - - SSW 1012,5 20 12 0,0
19.07.2019 11:00:00 19,0 13,8 - - 22 12 - - SSW 1012,7 35 0 0,0
19.07.2019 10:00:00 17,6 11,1 19,2 17,7 15 8 - - SSW 1013,0 45 6 0,0
19.07.2019 09:00:00 16,8 11,7 - - 16 9 - - SSW 1013,2 30 0 0,0
19.07.2019 08:00:00 16,2 11,9 - - 11 6 - - SW 1013,1 30 0 0,0
19.07.2019 07:00:00 14,9 12,1 - - 5 3 - - W 1013,1 40 0 0,0
19.07.2019 06:00:00 12,6 10,7 - - 2 1 - - SSW 1012,8 45 6 0,0
19.07.2019 05:00:00 13,1 9,1 - - 5 3 - - WNW 1012,7 35 0 0,0
19.07.2019 04:00:00 14,5 9,4 - - 11 6 - - W 1012,8 45 0 0,0
19.07.2019 03:00:00 14,9 9,7 - - 11 6 - - W 1012,6 50 0 0,0
19.07.2019 02:00:00 15,5 10,0 - - 9 5 - - W 1012,8 50 0 0,0
19.07.2019 01:00:00 16,5 10,5 - - 11 6 - - W 1012,6 45 - 0,0
19.07.2019 00:00:00 17,2 12,2 - - 9 5 - - WSW 1012,2 45 0 0,0
18.07.2019 23:00:00 17,4 10,2 - - 8 4 - - WSW 1011,9 50 0 0,0
18.07.2019 22:00:00 17,4 10,6 - - 8 4 - - WNW 1011,6 50 0 0,0
18.07.2019 21:00:00 19,3 10,6 - - 8 4 - - W 1011,2 50 0 0,0
18.07.2019 20:00:00 21,2 12,0 - - 13 7 - - W 1010,7 45 24 0,0
18.07.2019 19:00:00 21,7 11,7 - - 18 10 - - WSW 1010,2 30 54 0,0
18.07.2019 18:00:00 21,6 11,7 - - 22 12 - - WSW 1010,1 45 30 0,0
18.07.2019 17:00:00 21,4 12,4 - - 21 11 - - WSW 1010,0 50 0 0,0
18.07.2019 16:00:00 21,5 13,2 - - 22 12 - - W 1010,0 45 30 0,0
18.07.2019 15:00:00 20,2 15,1 - - 18 10 - - WSW 1010,0 30 6 0,0
18.07.2019 14:00:00 18,3 16,5 - - 13 7 - - WSW 1009,8 35 0 0,0
18.07.2019 13:00:00 17,1 15,8 - - 13 7 - - W 1009,4 30 0 2,0
18.07.2019 12:00:00 19,2 15,9 - - 24 13 - - SW 1009,4 30 0 0,0
18.07.2019 11:00:00 18,7 16,0 - - 22 12 - - SW 1009,5 45 0 0,0
18.07.2019 10:00:00 17,6 16,0 19,9 17,5 18 10 - - SW 1009,6 6 0 0,0
18.07.2019 09:00:00 18,5 14,3 - - 24 13 - - SW 1009,6 20 6 0,0
18.07.2019 08:00:00 17,8 14,5 - - 18 10 - - SW 1009,9 25 0 0,0
18.07.2019 07:00:00 17,0 14,8 - - 15 8 - - SW 1009,7 14 6 0,0
18.07.2019 06:00:00 16,3 14,3 - - 8 4 - - SW 1009,9 15 0 0,0
18.07.2019 05:00:00 16,6 14,0 - - 13 7 - - WSW 1010,2 20 0 0,0
18.07.2019 04:00:00 16,6 13,7 - - 9 5 - - WSW 1010,1 21 0 0,0
18.07.2019 03:00:00 16,7 13,4 - - 11 6 - - SW 1010,5 23 0 0,0
18.07.2019 02:00:00 16,7 12,4 - - 13 7 - - WSW 1010,9 40 0 0,0
18.07.2019 01:00:00 17,5 12,0 - - 13 7 - - WSW 1011,4 45 - 0,0
18.07.2019 00:00:00 18,2 11,7 - - 15 8 - - WSW 1011,5 50 0 0,0
17.07.2019 23:00:00 19,2 12,7 - - 15 8 - - WSW 1011,5 40 0 0,0
17.07.2019 22:00:00 19,7 13,3 - - 13 7 - - SW 1011,6 30 0 0,0
17.07.2019 21:00:00 19,9 14,2 - - 15 8 - - SSW 1011,6 45 0 0,0
17.07.2019 20:00:00 20,8 12,7 - - 13 7 - - SSW 1011,9 50 0 0,0
17.07.2019 19:00:00 22,0 12,4 - - 16 9 - - SSW 1012,2 50 0 0,0
17.07.2019 18:00:00 22,2 12,2 - - 18 10 - - SSW 1012,4 45 0 0,0
17.07.2019 17:00:00 23,1 11,9 - - 21 11 - - SSW 1012,8 45 0 0,0
17.07.2019 16:00:00 23,5 11,5 - - 21 11 - - SSW 1013,1 45 0 0,0
17.07.2019 15:00:00 23,5 11,6 - - 18 10 - - SSW 1013,5 35 30 0,0
17.07.2019 14:00:00 24,1 13,2 - - 13 7 - - S 1013,9 45 60 0,0
17.07.2019 13:00:00 22,7 13,4 - - 15 8 - - ESE 1014,4 30 60 0,0
17.07.2019 12:00:00 22,9 11,7 - - 11 6 - - SE 1014,9 29 60 0,0
17.07.2019 11:00:00 21,7 11,7 - - 11 6 - - S 1015,1 50 60 0,0
17.07.2019 10:00:00 21,0 11,3 19,7 17,4 11 6 - - SSW 1015,4 35 60 0,0
17.07.2019 09:00:00 19,5 12,1 - - 9 5 - - SSW 1015,6 35 60 0,0
17.07.2019 08:00:00 18,6 13,5 - - 9 5 - - SW 1015,5 18 60 0,0
17.07.2019 07:00:00 16,8 15,5 - - 5 3 - - SW 1015,6 24 42 0,0
17.07.2019 06:00:00 12,2 10,7 - - 4 2 - - WSW 1015,8 11 0 0,0
17.07.2019 05:00:00 12,9 9,9 - - 2 1 - - WSW 1016,0 10 0 0,0
17.07.2019 04:00:00 15,9 12,9 - - 11 6 - - WSW 1016,2 30 0 0,0
17.07.2019 03:00:00 16,3 13,3 - - 9 5 - - WSW 1016,6 26 0 0,0
17.07.2019 02:00:00 16,4 13,0 - - 9 5 - - WSW 1017,2 30 0 0,0
17.07.2019 01:00:00 16,4 13,1 - - 9 5 - - WSW 1017,7 26 - 0,0
17.07.2019 00:00:00 17,3 13,9 - - 9 5 - - SW 1017,7 30 0 0,0
16.07.2019 23:00:00 17,1 13,3 - - 11 6 - - SW 1017,7 30 0 0,0
16.07.2019 22:00:00 17,9 14,3 - - 15 8 - - SSW 1017,6 30 0 0,0
16.07.2019 21:00:00 19,7 14,9 - - 16 9 - - S 1017,3 45 24 0,0
16.07.2019 20:00:00 21,5 15,3 - - 18 10 - - S 1017,2 35 60 0,0
16.07.2019 19:00:00 21,8 14,5 - - 18 10 - - SSE 1017,3 40 60 0,0
16.07.2019 18:00:00 22,9 12,4 - - 16 9 - - SSE 1017,3 45 60 0,0
16.07.2019 17:00:00 23,2 11,6 - - 16 9 - - SSE 1017,7 35 60 0,0
16.07.2019 16:00:00 22,3 12,1 - - 18 10 - - SSE 1018,2 45 60 0,0
16.07.2019 15:00:00 22,6 13,7 - - 16 9 - - SSE 1018,6 40 60 0,0
16.07.2019 14:00:00 21,9 13,1 - - 18 10 - - SE 1018,8 40 60 0,0
16.07.2019 13:00:00 20,8 11,9 - - 15 8 - - SSE 1019,2 35 60 0,0
16.07.2019 12:00:00 20,3 10,9 - - 15 8 - - S 1019,4 45 60 0,0
16.07.2019 11:00:00 19,8 12,4 - - 15 8 - - S 1019,6 30 60 0,0
16.07.2019 10:00:00 19,6 12,2 18,7 17,4 8 4 - - WSW 1020,0 30 60 -
16.07.2019 09:00:00 18,0 12,0 - - 5 3 - - WNW 1020,4 26 60 0,0
16.07.2019 08:00:00 15,6 11,9 - - 8 4 - - WNW 1020,6 22 60 0,0
16.07.2019 07:00:00 13,3 13,1 - - 5 3 - - W 1020,4 18 60 0,0
16.07.2019 06:00:00 9,4 9,1 - - 4 2 - - WSW 1020,2 4,1 12 0,0
16.07.2019 05:00:00 7,8 7,4 - - 5 3 - - W 1020,3 4,8 0 0,0
16.07.2019 04:00:00 8,3 8,0 - - 8 4 - - W 1020,4 2,4 0 0,0
16.07.2019 03:00:00 8,0 7,3 - - 5 3 - - W 1020,8 10 0 0,0
16.07.2019 02:00:00 9,4 8,9 - - 5 3 - - WNW 1021,1 5 0 0,0
16.07.2019 01:00:00 9,1 8,2 - - 5 3 - - WSW 1021,4 17 - 0,0
16.07.2019 00:00:00 9,8 8,8 - - 4 2 - - WNW 1021,5 16 0 0,0
15.07.2019 23:00:00 11,1 9,7 - - 2 1 - - WSW 1021,6 50 0 0,0
15.07.2019 22:00:00 13,8 10,5 - - 5 3 - - SSE 1021,7 50 0 0,0
15.07.2019 21:00:00 14,9 11,2 - - 8 4 - - SE 1021,7 45 42 0,0
15.07.2019 20:00:00 16,4 11,9 - - 9 5 - - SE 1021,7 40 24 0,0
15.07.2019 19:00:00 17,3 12,0 - - 11 6 - - ESE 1021,7 25 54 0,0
15.07.2019 18:00:00 17,9 11,6 - - 13 7 - - E 1021,7 45 30 0,0
15.07.2019 17:00:00 18,1 11,2 - - 15 8 - - ESE 1022,0 35 48 0,0
15.07.2019 16:00:00 18,4 11,3 - - 16 9 - - ESE 1022,4 45 60 0,0
15.07.2019 15:00:00 18,6 10,9 - - 16 9 - - ESE 1022,4 35 18 0,0
15.07.2019 14:00:00 18,5 10,4 - - 11 6 - - ENE 1022,5 30 24 0,0
15.07.2019 13:00:00 17,3 9,8 - - 9 5 - - NNE 1022,7 45 6 0,0
15.07.2019 12:00:00 18,1 10,3 - - 9 5 - - E 1022,8 23 24 0,0
15.07.2019 11:00:00 16,8 9,5 - - 9 5 - - N 1023,0 29 0 0,0
15.07.2019 10:00:00 15,5 10,2 19,0 17,4 13 7 - - N 1023,2 45 0 0,0
15.07.2019 09:00:00 15,7 9,6 - - 16 9 - - N 1023,1 45 0 0,0
15.07.2019 08:00:00 15,0 8,6 - - 15 8 - - NNE 1022,8 50 0 0,0
15.07.2019 07:00:00 14,1 9,3 - - 11 6 - - N 1022,6 50 0 0,0
15.07.2019 06:00:00 13,7 8,4 - - 13 7 - - N 1022,6 50 0 0,0
15.07.2019 05:00:00 13,7 8,2 - - 15 8 - - NNE 1022,7 50 0 0,0
15.07.2019 04:00:00 13,7 8,1 - - 13 7 - - NNE 1022,6 50 0 0,0
15.07.2019 03:00:00 14,1 9,1 - - 15 8 - - NNE 1022,8 50 0 0,0
15.07.2019 02:00:00 14,3 9,1 - - 13 7 - - NNE 1023,0 50 0 0,0
15.07.2019 01:00:00 14,4 9,1 - - 16 9 - - NNE 1023,3 50 - 0,0

tt = Température de l'air
td = dewpoint
tt -20cm = Température de l'air -20cm
tt -100cm = Température de l'air -100cm
ff = Vitesse du vent
fx = gusts
dd = Direction du vent
ppp = reduced air pressure
vv = visibility
sd = Ensoleillement
rr = Quantités de précipitations

stations d'obs. à proximité